Location: Unspecified
(0.0000°N, 0.0000°E)
Time: 19:31:36
(UTC+00:00)

Vanguard 1 Rocket - Pass Details

Date: 21 April 2026
Orbit: 655 x 4212 km, 34.3° (Epoch: 17 May)

Event Time Altitude Azimuth Distance (km) Brightness Sun altitude
Rises 22:17:12 0° 293° (WNW) 7,989 12.6 -62.1°
Reaches altitude 10° 22:25:24 10° 307° (NW) 7,287 12.2 -63.9°
Maximum altitude 22:43:00 21° 350° (N) 6,309 11.6 -67.7°
Drops below altitude 10° 22:58:40 10° 34° (NE) 6,445 11.7 -70.8°
Sets 23:05:13 0° 50° (NE) 6,896 11.9 -72.0°
